Adana/Incirlik, Turkey

12:41 AM +03 on February 25, 2017 (GMT +0300)
Incirlik Air Base

Weather History for LTAG - October, 2013

Change the Weather History Date:

Wednesday, October 23, 2013

  Actual Average Record
Temperature  
Mean Temperature 64 °F -  
Max Temperature 82 °F 75 °F 87 °F (2003)
Min Temperature 45 °F 54 °F 44 °F (1996)
Degree Days  
Heating Degree Days 2    
Growing Degree Days 14 (Base 50)    
Moisture  
Dew Point 43 °F    
Average Humidity 52    
Maximum Humidity 81    
Minimum Humidity 12    
Precipitation  
Precipitation 0.00 in - - ()
Sea Level Pressure  
Sea Level Pressure 29.99 in    
Wind  
Wind Speed 4 mph ()    
Max Wind Speed 12 mph    
Max Gust Speed -    
Visibility 6.0 miles    
Events      
Averages and records for this station are not official NWS values.
T = Trace of Precipitation, MM = Missing Value Source: Averaged Metar Reports

Daily Weather History Graph

Daily Weather History Graph

Search for Another Location

Airport or City:

Trip Planner

Search our weather history database for the weather conditions in past years. The results will help you decide how hot, cold, wet, or windy it might be!

Date:

Astronomy

Oct. 23, 2013 Rise Set
Actual Time 6:53 AM EEST 5:51 PM EEST
Civil Twilight 6:26 AM EEST 6:17 PM EEST
Nautical Twilight 5:56 AM EEST 6:48 PM EEST
Astronomical Twilight 5:26 AM EEST 7:18 PM EEST
Moon 9:08 PM EEST (10/23) 10:50 AM EEST (10/23)
Length of Visible Light 11h 50m
Length of Day
10h 57m
Waning Gibbous, 82% of the Moon is Illuminated
Oct 23
Waning Gibbous
Oct 27
Last Quarter
Nov 3
New
Nov 10
First Quarter
Nov 17
Full

Hourly Weather History & Observations

Time (EEST) Temp. Windchill Dew Point Humidity Pressure Visibility Wind Dir Wind Speed Gust Speed Precip Events Conditions
12:20 AM 51.8 °F - 42.8 °F 71% 30.01 in - NE 5.8 mph - N/A   Clear
12:50 AM 50.0 °F - 42.8 °F 76% 30.01 in - NNE 4.6 mph - N/A   Clear
1:20 AM 50.0 °F - 42.8 °F 76% 30.01 in - NNE 4.6 mph - N/A   Clear
1:50 AM 51.8 °F - 41.0 °F 67% 30.01 in - NNE 3.5 mph - N/A   Clear
2:20 AM 51.8 °F - 41.0 °F 67% 30.01 in - North 4.6 mph - N/A   Clear
2:50 AM 51.8 °F - 41.0 °F 67% 30.01 in - North 4.6 mph - N/A   Clear
3:00 AM 51 °F - 41 °F 60% 30.00 in 6 mi North 4.6 mph - -  
3:20 AM 51.8 °F - 41.0 °F 67% 30.01 in - NNE 4.6 mph - N/A   Clear
3:50 AM 51.8 °F - 41.0 °F 67% 30.01 in - North 3.5 mph - N/A   Clear
4:20 AM 53.6 °F - 39.2 °F 58% 30.01 in - Calm Calm - N/A   Clear
4:50 AM 51.8 °F - 39.2 °F 62% 30.01 in - North 1.2 mph - N/A   Clear
5:20 AM 51.8 °F - 39.2 °F 62% 30.01 in - NE 3.5 mph - N/A   Clear
5:50 AM 48.2 °F - 41.0 °F 76% 30.01 in - NNE 6.9 mph - N/A   Clear
6:20 AM 50.0 °F - 41.0 °F 71% 30.01 in - NNE 4.6 mph - N/A   Clear
6:50 AM 46.4 °F 43.5 °F 41.0 °F 81% 30.01 in - NNE 5.8 mph - N/A   Clear
7:20 AM 48.2 °F - 41.0 °F 76% 30.01 in - NNE 4.6 mph - N/A   Clear
7:50 AM 51.8 °F - 44.6 °F 76% 30.01 in - North 3.5 mph - N/A   Clear
8:20 AM 57.2 °F - 44.6 °F 63% 30.01 in - North 3.5 mph - N/A   Clear
8:50 AM 62.6 °F - 44.6 °F 52% 30.01 in - North 3.5 mph - N/A   Clear
9:00 AM 62 °F - 44 °F 41% 30.02 in 6 mi North 3.5 mph - -  
9:20 AM 62.6 °F - 48.2 °F 59% 30.01 in - NNW 3.5 mph - N/A   Clear
9:50 AM 68.0 °F - 46.4 °F 46% 30.01 in - Calm Calm - N/A   Clear
10:20 AM 71.6 °F - 46.4 °F 41% 30.01 in - Calm Calm - N/A   Clear
10:50 AM 75.2 °F - 42.8 °F 31% 30.01 in - South 2.3 mph - N/A   Clear
11:20 AM 77.0 °F - 42.8 °F 29% 30.01 in - SW 2.3 mph - N/A   Clear
11:50 AM 77.0 °F - 41.0 °F 28% 30.01 in - South 4.6 mph - N/A   Clear
12:20 PM 78.8 °F - 37.4 °F 23% 29.98 in - SSW 2.3 mph - N/A   Clear
12:50 PM 80.6 °F - 39.2 °F 23% 29.98 in - SSW 3.5 mph - N/A   Clear
1:20 PM 80.6 °F - 39.2 °F 23% 29.98 in - WSW 4.6 mph - N/A   Clear
1:50 PM 80.6 °F - 41.0 °F 24% 29.95 in - SW 8.1 mph - N/A   Clear
2:20 PM 82.4 °F - 39.2 °F 21% 29.95 in - SW 5.8 mph - N/A   Clear
2:50 PM 82.4 °F - 39.2 °F 21% 29.95 in - SW 6.9 mph - N/A   Clear
3:00 PM 82 °F - 38 °F 12% 29.94 in 6 mi SW 6.9 mph - -  
3:20 PM 82.4 °F - 41.0 °F 23% 29.95 in - SW 8.1 mph - N/A   Clear
3:50 PM 82.4 °F - 41.0 °F 23% 29.95 in - South 11.5 mph - N/A   Clear
4:20 PM 80.6 °F - 42.8 °F 26% 29.95 in - SW 10.4 mph - N/A   Clear
4:50 PM 78.8 °F - 42.8 °F 28% 29.95 in - SW 9.2 mph - N/A   Clear
5:20 PM 77.0 °F - 42.8 °F 29% 29.95 in - SW 6.9 mph - N/A   Clear
5:50 PM 80.6 °F - 42.8 °F 26% 29.92 in - SW 6.9 mph - N/A   Clear
6:20 PM 71.6 °F - 44.6 °F 38% 29.95 in - WSW 5.8 mph - N/A   Clear
6:50 PM 69.8 °F - 46.4 °F 43% 29.95 in - SSW 2.3 mph - N/A   Clear
7:20 PM 68.0 °F - 48.2 °F 49% 29.95 in - SSW 2.3 mph - N/A   Clear
7:50 PM 62.6 °F - 48.2 °F 59% 29.95 in - ENE 2.3 mph - N/A   Clear
8:20 PM 57.2 °F - 48.2 °F 72% 29.95 in - NE 5.8 mph - N/A   Clear
8:50 PM 59.0 °F - 48.2 °F 67% 29.98 in - ENE 8.1 mph - N/A   Clear
9:00 PM 58 °F - 48 °F 62% 29.97 in 6 mi ENE 8.1 mph - -  
9:20 PM 57.2 °F - 48.2 °F 72% 29.98 in - NE 8.1 mph - N/A   Clear
9:50 PM 55.4 °F - 48.2 °F 77% 29.98 in - ENE 6.9 mph - N/A   Clear
10:20 PM 55.4 °F - 48.2 °F 77% 29.98 in - NNE 5.8 mph - N/A   Clear
10:50 PM 55.4 °F - 48.2 °F 77% 29.98 in - NE 6.9 mph - N/A   Clear
11:20 PM 55.4 °F - 48.2 °F 77% 29.98 in - NE 9.2 mph - N/A   Clear
11:50 PM 57.2 °F - 46.4 °F 67% 29.98 in - ENE 5.8 mph - N/A   Clear